[[{"header":{"parameterUnit":"m.s-1","parameterCategory":1,"la1":30.2991,"la2":30.254,"lo1":-89.0895,"lo2":-89.0444,"dy":0.0017,"dx":0.0017,"nx":28,"ny":28,"refTime":"2024-07-20T09:00:00:Z","depth":0,"parameterNumber":2,"parameterNumberName":"U-component_of_WINDS"},"data":[0,0,0,0,0,0,0,0,0,0,0,0,0,0,0,0,0,0,0,0,0,0,0,0,0,0,0,0,0,0,0,0,0,0,0,0,0,0,0,0,0,0,0,0,0,0,0,0,0,0,0,0,0,0,0,0,0,0,0.8678,0.8678,0,0.872,0.8721,0.8721,0.8749,0.8749,0.8749,0.875,0.879,0.8791,0.8792,0,0,0,0,0,0,0,0,0,0,0,0,0,0.8617,0.8618,0.8678,0.8678,0.8679,0.872,0.8721,0.8721,0.8749,0.8749,0.8749,0.875,0.879,0.8791,0.8792,0,0,0,0,0,0,0,0,0,0,0,0,0,0.865,0.8619,0.8678,0.8698,0.87,0.872,0.8721,0.8721,0.8749,0.8749,0.8749,0.875,0.8789,0.8791,0.8792,0.8795,0,0,0.8796,0.8797,0,0,0,0,0,0,0,0,0.8648,0.8652,0.8694,0.8696,0.8699,0.873,0.8714,0.8746,0.8749,0.873,0.875,0.875,0.877,0.8773,0.878,0.8796,0.8798,0.8796,0.8797,0.8798,0.8798,0,0,0,0,0,0,0,0.8646,0.865,0.8694,0.8695,0.8698,0.8703,0.8708,0.872,0.8748,0.8732,0.8734,0.8739,0.8771,0.8778,0.8781,0.8799,0.8796,0.8797,0.8798,0.8799,0.8818,0.8818,0,0,0,0,0,0,0.8641,0.8648,0.8693,0.8696,0.8674,0.8704,0.871,0.8719,0.8748,0.8752,0.8738,0.874,0.8776,0.8779,0.8782,0.8786,0.8798,0.8799,0.88,0.8818,0.8818,0.8817,0,0,0,0,0,0,0.8639,0.8645,0.8691,0.8673,0.8679,0.8705,0.8716,0.872,0.8728,0.8753,0.8757,0.8741,0.8776,0.8781,0.8791,0.8788,0.88,0.8801,0.8819,0.8818,0.8818,0.8794,0,0,0,0,0,0,0.8638,0.8644,0.8646,0.8673,0.868,0.87,0.8715,0.8721,0.873,0.8733,0.8757,0.8761,0.8777,0.8789,0.8792,0.879,0.8802,0.8819,0.8818,0.8818,0.8795,0.8793,0.8791,0,0,0,0,0,0.8635,0.8638,0.8646,0.8651,0.8683,0.87,0.8704,0.8724,0.873,0.8732,0.8747,0.876,0.8788,0.879,0.8794,0.8792,0.8819,0.8818,0.8818,0.8796,0.8793,0.8791,0,0,0,0,0,0,0.8609,0.8641,0.8651,0.8662,0.8678,0.8705,0.8708,0.872,0.8734,0.8736,0.8758,0.8763,0.8771,0.8783,0.8784,0.8795,0.8805,0.8805,0.8787,0.8785,0.8782,0.8779,0.8803,0,0,0,0,0,0.8605,0.8617,0.8644,0.8651,0.8659,0.8682,0.869,0.8703,0.872,0.8727,0.8744,0.8759,0.8771,0.8779,0.8791,0.8797,0.8802,0.8798,0.8795,0.8794,0.8793,0.8796,0.8794,0.8815,0.8815,0.8815,0,0,0.8596,0.8615,0.8621,0.8647,0.8661,0.8671,0.8687,0.8698,0.8706,0.8729,0.874,0.8752,0.8771,0.8778,0.8783,0.8788,0.8788,0.8793,0.8791,0.8792,0.8795,0.8793,0.8791,0.8815,0.8815,0.8815,0,0,0.8585,0.8602,0.8609,0.8622,0.8643,0.8658,0.866,0.8685,0.8694,0.8705,0.8722,0.8731,0.8752,0.8764,0.8772,0.8764,0.8776,0.8768,0.8756,0.8758,0.8757,0.8755,0.8751,0.875,0.8768,0.8767,0.8767,0,0.8571,0.8589,0.8611,0.862,0.863,0.8651,0.8658,0.867,0.8693,0.8699,0.8705,0.8731,0.8745,0.8755,0.8753,0.876,0.8761,0.8765,0.8755,0.8754,0.8753,0.8749,0.8748,0.8766,0.8766,0.8767,0.8767,0,0.857,0.8582,0.8585,0.8608,0.8618,0.8626,0.8647,0.8655,0.8667,0.8681,0.8691,0.8708,0.8724,0.8728,0.874,0.8739,0.8742,0.8751,0.8762,0.875,0.8746,0.8745,0.8765,0.8765,0.8765,0.8766,0,0,0.8545,0.8579,0.858,0.8589,0.8614,0.8623,0.8631,0.8647,0.8652,0.8667,0.8674,0.869,0.8699,0.8709,0.8722,0.8724,0.8715,0.8733,0.8734,0.8728,0.8714,0.8706,0.8704,0.8723,0.8722,0.8722,0.8712,0,0.8537,0.8554,0.8573,0.8582,0.8593,0.8612,0.8619,0.8634,0.8646,0.8656,0.867,0.8681,0.8692,0.8698,0.8701,0.8715,0.8712,0.8716,0.8727,0.8728,0.8721,0.8702,0.8694,0.8684,0.8711,0.8711,0.871,0,0.8531,0.8545,0.8556,0.8578,0.8583,0.8589,0.8604,0.8614,0.863,0.8639,0.8649,0.8663,0.8671,0.8681,0.8691,0.8693,0.8699,0.8707,0.8707,0.8708,0.8718,0.8702,0.8681,0.8679,0.8709,0.8709,0.8709,0,0.851,0.8532,0.8541,0.8549,0.8575,0.8578,0.8589,0.8606,0.8614,0.8627,0.8632,0.8645,0.8653,0.8662,0.8679,0.8684,0.8687,0.8698,0.8693,0.8692,0.8692,0.8692,0.8671,0.8697,0.8697,0.8697,0.8697,0,0.8499,0.8504,0.8532,0.8537,0.8543,0.8564,0.8569,0.8581,0.8596,0.8603,0.862,0.8626,0.8648,0.8656,0.8669,0.8675,0.8678,0.8685,0.8688,0.8683,0.8682,0.8686,0.8687,0.8697,0.8697,0.8697,0.8697,0,0.8477,0.8496,0.8506,0.853,0.8536,0.8539,0.8558,0.8564,0.8577,0.8586,0.8589,0.8609,0.862,0.8637,0.8653,0.8661,0.8664,0.867,0.8659,0.866,0.8654,0.8654,0.8634,0.8632,0.8661,0.8661,0.866,0,0.8468,0.8473,0.8497,0.8503,0.8513,0.8523,0.8531,0.8551,0.8558,0.8576,0.8579,0.859,0.8601,0.8616,0.8632,0.8643,0.8649,0.8641,0.8651,0.8645,0.8647,0.8647,0.8646,0.8639,0.8638,0.8638,0.8638,0,0.8451,0.8459,0.8471,0.8485,0.8494,0.8506,0.8518,0.8522,0.8544,0.8551,0.8562,0.857,0.8586,0.8597,0.861,0.862,0.8632,0.8635,0.8634,0.8628,0.8621,0.8623,0.8652,0.8635,0.8635,0.8636,0.8636,0.8636,0.8435,0.8439,0.8456,0.8467,0.8479,0.849,0.8495,0.8509,0.8519,0.8533,0.8544,0.8554,0.8568,0.8587,0.8596,0.8603,0.8609,0.8608,0.8608,0.8607,0.8605,0.862,0.8606,0.8606,0.8606,0.8606,0.8606,0,0.8417,0.8428,0.8439,0.8456,0.8464,0.8475,0.8489,0.8495,0.8504,0.8517,0.8526,0.8538,0.8548,0.8564,0.8576,0.8578,0.8583,0.858,0.858,0.8581,0.86,0.8598,0.8575,0.8575,0.8575,0.8575,0.8575,0.8575,0.8409,0.8416,0.8426,0.8439,0.845,0.846,0.8467,0.8477,0.8487,0.8499,0.8508,0.8518,0.8532,0.8544,0.8553,0.8558,0.856,0.8555,0.8561,0.8577,0.858,0.8583,0.8582,0.8556,0.8556,0.8542,0.8542,0.8541]},{"header":{"parameterUnit":"m.s-1","parameterCategory":1,"la1":30.2991,"la2":30.254,"lo1":-89.0895,"lo2":-89.0444,"dy":0.0017,"dx":0.0017,"nx":28,"ny":28,"refTime":"2024-07-20T09:00:00:Z","depth":0,"parameterNumber":3,"parameterNumberName":"V-component_of_WINDS"},"data":[0,0,0,0,0,0,0,0,0,0,0,0,0,0,0,0,0,0,0,0,0,0,0,0,0,0,0,0,0,0,0,0,0,0,0,0,0,0,0,0,0,0,0,0,0,0,0,0,0,0,0,0,0,0,0,0,0,0,3.117,3.1171,0,3.1247,3.1248,3.1249,3.1227,3.1225,3.1224,3.1222,3.1299,3.1302,3.1305,0,0,0,0,0,0,0,0,0,0,0,0,0,3.0998,3.1002,3.117,3.1171,3.1172,3.1247,3.1248,3.1249,3.1227,3.1225,3.1223,3.1222,3.1297,3.1302,3.1306,0,0,0,0,0,0,0,0,0,0,0,0,0,3.1074,3.1003,3.117,3.117,3.1171,3.1247,3.1248,3.125,3.1228,3.1225,3.1223,3.1221,3.1296,3.1301,3.1306,3.1386,0,0,3.1322,3.1325,0,0,0,0,0,0,0,0,3.107,3.108,3.1169,3.117,3.1171,3.1225,3.1216,3.1295,3.1228,3.1206,3.1222,3.1219,3.1276,3.1283,3.1302,3.139,3.1393,3.1323,3.1326,3.1328,3.133,0,0,0,0,0,0,0,3.1065,3.1077,3.1201,3.117,3.1172,3.1165,3.1173,3.1231,3.1253,3.1208,3.1206,3.1216,3.1276,3.1297,3.1304,3.1394,3.1323,3.1327,3.1331,3.1333,3.1548,3.1551,0,0,0,0,0,0,3.1059,3.1073,3.1198,3.1203,3.1114,3.117,3.1179,3.121,3.1253,3.1257,3.1218,3.1215,3.1289,3.1298,3.1306,3.1401,3.1328,3.1333,3.1336,3.1546,3.1549,3.1551,0,0,0,0,0,0,3.1055,3.1071,3.1195,3.1137,3.1153,3.1175,3.1211,3.1213,3.1234,3.126,3.1264,3.1236,3.1288,3.1299,3.1366,3.1403,3.1336,3.134,3.1543,3.1547,3.155,3.1592,0,0,0,0,0,0,3.1051,3.1069,3.1101,3.1138,3.1156,3.1255,3.1213,3.1216,3.1244,3.124,3.1278,3.1282,3.1287,3.1358,3.1371,3.1409,3.1344,3.1539,3.1544,3.1549,3.1587,3.1596,3.1605,0,0,0,0,0,3.1045,3.111,3.1103,3.1118,3.1196,3.1257,3.1267,3.1272,3.1247,3.1278,3.1294,3.1281,3.1397,3.1365,3.138,3.142,3.1537,3.1543,3.1548,3.1583,3.1595,3.1604,0,0,0,0,0,0,3.1076,3.1115,3.1108,3.1187,3.1219,3.1253,3.1293,3.1285,3.1324,3.1319,3.1323,3.1331,3.14,3.1417,3.138,3.1498,3.1463,3.1472,3.1485,3.1496,3.1504,3.1498,3.1349,0,0,0,0,0,3.1092,3.114,3.1171,3.1238,3.1254,3.1271,3.1297,3.1299,3.1331,3.1345,3.1366,3.1397,3.144,3.1469,3.1511,3.1589,3.1596,3.1624,3.1633,3.164,3.1647,3.1687,3.1699,3.157,3.157,3.157,0,0,3.1126,3.1153,3.1183,3.1244,3.1269,3.1316,3.1282,3.1334,3.1369,3.1352,3.1417,3.1433,3.1468,3.1541,3.1574,3.1557,3.1684,3.1647,3.1652,3.1656,3.1694,3.1706,3.1717,3.1574,3.1574,3.1573,0,0,3.1212,3.1238,3.1296,3.1321,3.1359,3.137,3.1383,3.1419,3.1429,3.1494,3.1482,3.1522,3.1598,3.1622,3.1645,3.1737,3.1725,3.1751,3.1796,3.1835,3.1845,3.1854,3.1885,3.1897,3.1758,3.1758,3.1758,0,3.1249,3.1321,3.1326,3.1379,3.1405,3.1393,3.145,3.1474,3.1523,3.1541,3.1521,3.1614,3.1637,3.1714,3.1736,3.1756,3.177,3.1746,3.1844,3.1853,3.1861,3.1891,3.1903,3.1761,3.1761,3.176,3.176,0,3.1364,3.1414,3.1455,3.1503,3.1534,3.1589,3.1601,3.1631,3.1629,3.1641,3.1705,3.1732,3.1778,3.1796,3.1795,3.1872,3.1861,3.1843,3.1807,3.1876,3.1904,3.1915,3.1765,3.1764,3.1763,3.1762,0,0,3.1472,3.1521,3.1536,3.1557,3.1597,3.1635,3.1688,3.1733,3.1758,3.1792,3.1835,3.1898,3.1881,3.1906,3.1907,3.1942,3.2011,3.1919,3.192,3.1934,3.2095,3.2107,3.2121,3.2003,3.2006,3.2007,3.2092,0,3.156,3.1654,3.1659,3.1744,3.1788,3.1776,3.1822,3.185,3.1862,3.19,3.1913,3.1957,3.1932,3.1947,3.1981,3.1995,3.2043,3.1989,3.2041,3.2043,3.2032,3.2136,3.215,3.2228,3.2103,3.2105,3.2106,0,3.1676,3.1713,3.1802,3.1834,3.1853,3.1894,3.1934,3.1972,3.2003,3.2009,3.2036,3.2032,3.2083,3.2047,3.2117,3.2081,3.2102,3.2112,3.2115,3.2119,3.2078,3.2141,3.2253,3.2264,3.2123,3.2122,3.2121,0,3.1743,3.1816,3.1878,3.1896,3.1935,3.1964,3.1981,3.201,3.2036,3.2071,3.2088,3.2128,3.215,3.218,3.2186,3.2159,3.2255,3.222,3.226,3.226,3.228,3.2279,3.2396,3.2296,3.2296,3.2296,3.2296,0,3.184,3.1895,3.1909,3.1947,3.2007,3.2011,3.207,3.2085,3.211,3.2149,3.2141,3.2178,3.2184,3.2221,3.2226,3.2282,3.2292,3.2297,3.2297,3.2297,3.2296,3.2311,3.2305,3.2299,3.2298,3.2298,3.2297,0,3.1926,3.1938,3.2005,3.2036,3.2044,3.2087,3.2113,3.2148,3.2159,3.2208,3.222,3.2236,3.228,3.2288,3.234,3.2343,3.2409,3.2405,3.2399,3.2398,3.2437,3.2433,3.2566,3.2583,3.2474,3.2475,3.2476,0,3.1987,3.2028,3.2063,3.2089,3.2108,3.215,3.2176,3.2182,3.2209,3.2246,3.2277,3.2319,3.2354,3.2423,3.2439,3.2477,3.2473,3.2517,3.2479,3.2476,3.2471,3.2468,3.2471,3.2524,3.2525,3.2526,3.2527,0,3.2092,3.2095,3.2134,3.2174,3.2206,3.2238,3.2268,3.2289,3.2298,3.2329,3.2374,3.24,3.2452,3.2494,3.2532,3.2548,3.2539,3.2539,3.255,3.255,3.2544,3.2546,3.2417,3.2536,3.2535,3.2534,3.2534,3.2534,3.2166,3.2201,3.2231,3.2274,3.2297,3.2325,3.2359,3.2373,3.2411,3.2454,3.2454,3.2503,3.253,3.2581,3.2599,3.2635,3.2621,3.2638,3.2642,3.2645,3.2648,3.2539,3.2642,3.2642,3.2642,3.2642,3.2642,0,3.2269,3.2287,3.2327,3.2369,3.2402,3.2391,3.2423,3.245,3.2493,3.252,3.2554,3.2604,3.2644,3.2662,3.2701,3.2726,3.2722,3.2736,3.2733,3.2737,3.2659,3.2645,3.2738,3.2738,3.2738,3.2738,3.2738,3.2738,3.2327,3.2385,3.2392,3.2461,3.2478,3.2526,3.2545,3.257,3.2591,3.2647,3.2681,3.2692,3.2715,3.2755,3.279,3.2794,3.2808,3.2823,3.2825,3.2752,3.2743,3.2733,3.272,3.2827,3.2827,3.2899,3.29,3.2901]}]]